Weather History for KMMV - April, 2014

Change the Weather History Date:

Wednesday, April 2, 2014

  Actual Average Record
Temperature  
Mean Temperature 48 °F 48 °F  
Max Temperature 60 °F 59 °F 77 °F (1944)
Min Temperature 35 °F 39 °F 25 °F (1972)
Degree Days  
Heating Degree Days 17 17  
Month to date heating degree days 33 34  
Since 1 July heating degree days 3964 3985  
Cooling Degree Days 0 0  
Month to date cooling degree days 0 0  
Year to date cooling degree days 0 0  
Moisture  
Dew Point 41 °F    
Average Humidity 76    
Maximum Humidity 100    
Minimum Humidity 51    
Precipitation  
Precipitation 0.00 in 0.13 in 0.85 in (1958)
Month to date precipitation 0.12 0.27  
Year to date precipitation 15.73 14.84  
Sea Level Pressure  
Sea Level Pressure 30.03 in    
Wind  
Wind Speed 4 mph (WSW)    
Max Wind Speed 9 mph    
Max Gust Speed -    
Visibility 7 miles    
Events Fog    
T = Trace of Precipitation, MM = Missing Value Source: NWS Daily Summary

Daily Weather History Graph

Daily Weather History Graph

Search for Another Location

Airport or City:

Trip Planner

Search our weather history database for the weather conditions in past years. The results will help you decide how hot, cold, wet, or windy it might be!

Date:

Astronomy

Apr. 02, 2014 Rise Set
Actual Time 6:50 AM PDT 7:41 PM PDT
Civil Twilight 6:21 AM PDT 8:11 PM PDT
Nautical Twilight 5:45 AM PDT 8:47 PM PDT
Astronomical Twilight 5:08 AM PDT 9:24 PM PDT
Moon 8:31 AM PDT (4/2) 11:19 PM PDT (4/2)
Length of Visible Light 13h 50m
Length of Day
12h 50m
Waxing Crescent, 11% of the Moon is Illuminated
Apr 2
Waxing Crescent
Apr 7
First Quarter
Apr 15
Full
Apr 22
Last Quarter
Apr 28
New

Hourly Weather History & Observations

Time (PDT) Temp. Windchill Dew Point Humidity Pressure Visibility Wind Dir Wind Speed Gust Speed Precip Events Conditions
12:35 AM 44.1 °F 42.5 °F 43.0 °F 96% 29.97 in 10.0 mi West 3.5 mph - N/A   Mostly Cloudy
12:53 AM 43.0 °F 40.3 °F 42.1 °F 97% 29.97 in 10.0 mi WSW 4.6 mph - N/A   Unknown
1:53 AM 43.0 °F - 42.1 °F 97% 29.98 in 10.0 mi Calm Calm - N/A   Clear
2:53 AM 41.0 °F - 39.9 °F 96% 29.98 in 10.0 mi Calm Calm - N/A   Clear
3:53 AM 41.0 °F 39.0 °F 39.9 °F 96% 29.98 in 10.0 mi WNW 3.5 mph - N/A   Clear
5:44 AM 35.1 °F - 35.1 °F 100% 30.00 in 1.8 mi Calm Calm - N/A   Clear
5:53 AM 36.0 °F - 36.0 °F 100% 30.01 in 1.8 mi Calm Calm - N/A   Clear
6:02 AM 36.0 °F 33.3 °F 36.0 °F 100% 30.01 in 2.0 mi West 3.5 mph - N/A   Clear
6:10 AM 36.0 °F 33.3 °F 35.1 °F 97% 30.01 in 1.5 mi WNW 3.5 mph - N/A   Clear
6:15 AM 37.0 °F 34.5 °F 36.0 °F 96% 30.01 in 3.0 mi WNW 3.5 mph - N/A   Clear
6:53 AM 36.0 °F 33.3 °F 36.0 °F 100% 30.03 in 10.0 mi West 3.5 mph - N/A   Clear
7:12 AM 36.0 °F 30.3 °F 35.1 °F 97% 30.03 in 10.0 mi WSW 6.9 mph - N/A   Scattered Clouds
7:20 AM 37.0 °F 32.4 °F 37.0 °F 100% 30.03 in 9.0 mi WSW 5.8 mph - N/A   Mostly Cloudy
7:24 AM 37.0 °F 32.4 °F 37.0 °F 100% 30.03 in 2.5 mi West 5.8 mph - N/A   Mostly Cloudy
7:26 AM 37.9 °F 33.5 °F 37.9 °F 100% 30.03 in 0.8 mi West 5.8 mph - N/A   Mostly Cloudy
7:34 AM 37.9 °F 34.4 °F 37.9 °F 100% 30.03 in 0.2 mi West 4.6 mph - N/A Fog Fog
7:53 AM 37.9 °F 35.5 °F 37.9 °F 100% 30.04 in 0.2 mi SW 3.5 mph - N/A Fog Fog
8:53 AM 39.9 °F 37.8 °F 39.9 °F 100% 30.05 in 0.2 mi WNW 3.5 mph - N/A Fog Fog
9:13 AM 41.0 °F 39.0 °F 39.9 °F 96% 30.06 in 0.8 mi West 3.5 mph - N/A   Mist
9:44 AM 43.0 °F 41.3 °F 43.0 °F 100% 30.06 in 9.0 mi Variable 3.5 mph - N/A   Mostly Cloudy
9:53 AM 44.1 °F - 43.0 °F 96% 30.07 in 10.0 mi Calm Calm - N/A   Scattered Clouds
10:18 AM 46.0 °F - 44.1 °F 93% 30.07 in 10.0 mi Calm Calm - N/A   Mostly Cloudy
10:53 AM 48.0 °F - 43.0 °F 83% 30.08 in 10.0 mi Calm Calm - N/A   Unknown
11:53 AM 52.0 °F - 46.0 °F 80% 30.08 in 10.0 mi Variable 3.5 mph - N/A   Mostly Cloudy
12:15 PM 52.0 °F - 44.1 °F 74% 30.07 in 10.0 mi Variable 4.6 mph - N/A   Unknown
12:53 PM 55.0 °F - 44.1 °F 67% 30.06 in 10.0 mi SW 6.9 mph - N/A   Clear
1:53 PM 57.0 °F - 45.0 °F 64% 30.06 in 10.0 mi South 5.8 mph - N/A   Clear
3:53 PM 60.1 °F - 43.0 °F 53% 30.04 in 10.0 mi South 8.1 mph - N/A   Scattered Clouds
4:53 PM 60.1 °F - 43.0 °F 53% 30.03 in 10.0 mi SSW 9.2 mph - N/A   Scattered Clouds
5:53 PM 59.0 °F - 42.1 °F 53% 30.02 in 10.0 mi WSW 4.6 mph - N/A   Mostly Cloudy
6:53 PM 57.0 °F - 45.0 °F 64% 30.01 in 10.0 mi WSW 4.6 mph - N/A   Mostly Cloudy
7:53 PM 53.1 °F - 44.1 °F 71% 30.01 in 10.0 mi WSW 6.9 mph - N/A   Scattered Clouds
8:53 PM 48.9 °F - 44.1 °F 83% 30.03 in 10.0 mi SW 5.8 mph - N/A   Scattered Clouds
9:53 PM 48.9 °F - 44.1 °F 83% 30.02 in 10.0 mi West 3.5 mph - N/A   Clear
10:53 PM 48.0 °F - 44.1 °F 86% 30.03 in 10.0 mi Calm Calm - N/A   Mostly Cloudy
11:53 PM 46.0 °F - 43.0 °F 89% 30.03 in 10.0 mi Calm Calm - N/A   Clear